Regional Weather Roundup
Issued by NWS Nashville, TN

Current Version | Previous Version | Text Only | Print | Product List | Glossary Off
Versions: 1 2 3 4 5 6 7 8 9 10 11 12 13 14 15 16 17 18 19 20 21 22 23 24 25 26 27 28 29 30 31 32 33 34 35 36 37 38 39 40 41 42 43 44 45 46 47 48 49 50

000
ASUS44 KOHX 281710
RWROHX
MIDDLE TENNESSEE HOURLY WEATHER ROUNDUP
NATIONAL WEATHER SERVICE NASHVILLE TN
1100 AM CST TUE FEB 28 2017

NOTE: "FAIR" INDICATES FEW OR NO CLOUDS BELOW 12,000 FEET WITH
NO SIGNIFICANT WEATHER AND/OR OBSTRUCTIONS TO VISIBILITY.

* THESE REPORTS ARE NOT UNDER NWS QUALITY CONTROL AND MAY NOT
  REPORT WEATHER SUCH AS PRECIPITATION AND FOG.


TNZ005>011-023>034-057-059-062>066-078-080-281800
...NORTHERN MIDDLE TENNESSEE...

CITY           SKY/WX    TMP DP  RH WIND       PRES   REMARKS
CLARKSVILLE    CLOUDY    66  59  78 S14G23    30.02S
CROSSVILLE     RAIN      56  54  93 S9G20     30.18S FOG
GALLATIN       CLOUDY    63  59  88 S8        30.10F
DICKSON        MOSUNNY   64  60  87 S15       30.05S
LIVINGSTON     CLOUDY    63  56  78 S13       30.09
NASHVILLE      LGT RAIN  62  59  90 S15G23    30.08F
PORTLAND       CLOUDY    61  59  94 S16       30.06F
SMYRNA         RAIN      60  59  96 S13       30.09S
SPARTA         CLOUDY    59  57  94 S12       30.12F
SPRINGFIELD    CLOUDY    64  61  88 S16G25    30.03S
WEST NASHVILLE PTSUNNY   63  59  88 S16       30.06F
$$
TNZ056-058-060-061-075>077-079-093>097-281800
...SOUTHERN MIDDLE TENNESSEE...

CITY           SKY/WX    TMP DP  RH WIND       PRES   REMARKS
COLUMBIA       CLOUDY   N/A N/A N/A S5        30.10S
FAYETTEVILLE   CLOUDY    59  57  94 S12       30.15R
MCMINNVILLE    CLOUDY    61  61 100 SW7       30.15S
SHELBYVILLE    CLOUDY    61  61 100 SE10      30.13F
TULLAHOMA      CLOUDY    57  57 100 S9        30.16R
WINCHESTER     CLOUDY    57  57 100 S13       30.16F
$$


...KEY TO REMARKS...
VSB - VISIBILITY IN MILES
WCI - WIND CHILL INDEX
HX  - HEAT INDEX




USA.gov is the U.S. government's official web portal to all federal, state and local government web resources and services.